Stations météo

Publicité
Bournemouth Airport, Grande-Bretagne (3862): Température de l'air & dewpoint: 18.01.2021 06:00:00 - 24.01.2021 06:00:00 (GMT)Bournemouth Airport, Grande-Bretagne (3862): Température de l'air -20cm & Température de l'air -100cm: 18.01.2021 06:00:00 - 24.01.2021 06:00:00 (GMT)Bournemouth Airport, Grande-Bretagne (3862): Vitesse du vent & gusts: 18.01.2021 06:00:00 - 24.01.2021 06:00:00 (GMT)Bournemouth Airport, Grande-Bretagne (3862): Direction du vent: 18.01.2021 06:00:00 - 24.01.2021 06:00:00 (GMT)Bournemouth Airport, Grande-Bretagne (3862): reduced air pressure: 18.01.2021 06:00:00 - 24.01.2021 06:00:00 (GMT)Bournemouth Airport, Grande-Bretagne (3862): visibility: 18.01.2021 06:00:00 - 24.01.2021 06:00:00 (GMT)Bournemouth Airport, Grande-Bretagne (3862): Ensoleillement: 18.01.2021 06:00:00 - 24.01.2021 06:00:00 (GMT)Bournemouth Airport, Grande-Bretagne (3862): Quantités de précipitations: 18.01.2021 06:00:00 - 24.01.2021 06:00:00 (GMT)
Date & Time tt [°C] td [°C] tt -20cm [°C] tt -100cm [°C] ff [km/h] ff [knt] fx [km/h] fx [knt] dd ppp [hPa] vv [km] sd [min] rr [mm]
24.01.2021 06:00:00 1,5 0,0 - - 13 7 - - ESE 996,3 10 0 0,0
24.01.2021 05:00:00 0,0 -0,5 - - 9 5 - - ESE 997,5 26 0 0,0
24.01.2021 04:00:00 -3,9 -4,4 - - 2 1 - - ENE 998,7 17 0 0,0
24.01.2021 03:00:00 -4,6 -5,2 - - 2 1 - - S 999,4 10 0 0,0
24.01.2021 02:00:00 -4,3 -4,8 - - 2 1 - - E 999,9 8 0 0,0
24.01.2021 01:00:00 -4,9 -5,6 - - 4 2 - - N 1000,1 0,9 0 0,0
24.01.2021 00:00:00 -4,1 -4,6 - - 2 1 - - W 1000,2 10 - 0,0
23.01.2021 23:00:00 -3,4 -4,0 - - 2 1 - - W 1000,1 9 0 0,0
23.01.2021 22:00:00 -2,7 -3,5 - - 2 1 - - W 999,7 10 0 0,0
23.01.2021 21:00:00 -2,0 -3,2 - - 5 3 - - W 999,6 21 0 0,0
23.01.2021 20:00:00 -1,9 -3,3 - - 4 2 - - W 999,2 17 0 0,0
23.01.2021 19:00:00 -0,7 -2,6 - - 8 4 - - WNW 998,6 22 0 0,0
23.01.2021 18:00:00 -0,3 -3,0 - - 11 6 - - W 998,2 18 0 0,0
23.01.2021 17:00:00 2,6 -1,1 - - 13 7 - - NW 997,5 26 24 0,0
23.01.2021 16:00:00 4,5 -1,0 - - 16 9 - - NW 997,4 35 60 0,0
23.01.2021 15:00:00 5,4 -0,1 - - 18 10 - - WNW 997,0 35 60 0,0
23.01.2021 14:00:00 5,2 1,3 - - 13 7 - - W 996,9 28 60 0,0
23.01.2021 13:00:00 4,5 1,5 - - 15 8 - - WNW 996,7 29 60 0,0
23.01.2021 12:00:00 3,6 2,1 - - 11 6 - - NW 996,5 10 36 0,0
23.01.2021 11:00:00 1,5 1,2 - - 2 1 - - - 996,0 10 0 0,0
23.01.2021 10:00:00 0,1 -0,2 - - 4 2 - - - 995,5 10 0 0,0
23.01.2021 09:00:00 -1,3 -1,6 5,7 7,2 9 5 - - NNW 994,8 10 0 0,0
23.01.2021 08:00:00 -1,7 -2,0 - - 8 4 - - NNW 994,5 10 0 0,0
23.01.2021 07:00:00 -1,7 -2,0 - - 11 6 - - N 993,8 10 0 0,0
23.01.2021 06:00:00 -1,8 -2,1 - - 9 5 - - N 993,7 10 0 0,0
23.01.2021 05:00:00 -2,0 -2,3 - - 2 1 - - N 993,8 8 0 0,0
23.01.2021 04:00:00 -2,1 -2,5 - - 2 1 - - N 994,2 4,1 0 0,0
23.01.2021 03:00:00 -1,9 -2,3 - - 4 2 - - NNE 994,8 6 0 0,0
23.01.2021 02:00:00 -0,8 -1,3 - - 0 0 - - N 995,2 13 0 0,0
23.01.2021 01:00:00 -0,4 -1,1 - - 8 4 - - WSW 995,5 25 0 0,0
23.01.2021 00:00:00 -0,3 -1,2 - - 5 3 - - SE 995,5 17 - 0,0
22.01.2021 23:00:00 1,2 -0,1 - - 9 5 - - WNW 996,1 35 0 0,0
22.01.2021 22:00:00 2,6 1,1 - - 16 9 - - W 995,4 10 0 0,0
22.01.2021 21:00:00 3,6 1,7 - - 18 10 - - W 994,8 10 0 0,0
22.01.2021 20:00:00 2,8 1,3 - - 9 5 - - W 995,0 10 0 0,0
22.01.2021 19:00:00 3,6 1,6 - - 11 6 - - W 994,5 10 0 0,0
22.01.2021 18:00:00 3,9 1,9 - - 13 7 - - WSW 994,3 10 0 0,2
22.01.2021 17:00:00 4,5 2,3 - - 21 11 48 26 W 994,3 10 6 0,6
22.01.2021 16:00:00 7,4 2,9 - - 16 9 - - WSW 993,8 10 30 0,0
22.01.2021 15:00:00 9,0 4,0 - - 9 5 - - W 993,7 10 24 0,0
22.01.2021 14:00:00 7,2 2,8 - - 15 8 - - WSW 993,8 10 12 0,0
22.01.2021 13:00:00 6,8 2,9 - - 9 5 - - WSW 994,3 10 42 0,0
22.01.2021 12:00:00 8,1 4,1 - - 8 4 - - WSW 994,6 10 60 0,0
22.01.2021 11:00:00 5,6 5,4 - - 0 0 - - N 994,8 10 54 0,2
22.01.2021 10:00:00 0,5 0,4 - - 0 0 - - N 994,5 10 42 0,0
22.01.2021 09:00:00 -2,6 -2,9 6,7 7,4 0 0 - - N 993,9 10 0 0,0
22.01.2021 08:00:00 -2,2 -2,4 - - 2 1 - - NNW 993,1 10 0 0,0
22.01.2021 07:00:00 -2,5 -2,9 - - 4 2 - - NW 992,4 10 0 0,0
22.01.2021 06:00:00 -1,3 -1,6 - - 2 1 - - NNW 991,9 10 0 0,0
22.01.2021 05:00:00 -0,6 -1,0 - - 0 0 - - N 991,5 8 0 0,0
22.01.2021 04:00:00 -0,3 -0,6 - - 8 4 - - WSW 991,0 26 0 0,0
22.01.2021 03:00:00 -1,7 -2,2 - - 5 3 - - WSW 990,7 21 0 0,0
22.01.2021 02:00:00 0,8 0,4 - - 4 2 - - ESE 990,0 27 0 0,0
22.01.2021 01:00:00 1,1 0,4 - - 5 3 - - WNW 989,8 26 0 0,0
22.01.2021 00:00:00 0,4 -1,3 - - 8 4 - - W 989,3 29 - 0,0
21.01.2021 23:00:00 1,4 0,0 - - 8 4 - - W 988,7 30 0 0,0
21.01.2021 22:00:00 2,8 1,4 - - 9 5 - - WSW 987,9 26 0 0,0
21.01.2021 21:00:00 2,9 1,4 - - 8 4 - - W 987,1 27 0 0,0
21.01.2021 20:00:00 4,1 2,6 - - 8 4 - - W 986,5 10 0 0,0
21.01.2021 19:00:00 4,3 3,8 - - 8 4 - - W 985,5 10 0 0,0
21.01.2021 18:00:00 5,0 4,4 - - 4 2 - - NE 985,0 10 0 0,0
21.01.2021 17:00:00 5,7 4,2 - - 4 2 - - - 984,7 10 0 0,0
21.01.2021 16:00:00 6,9 4,9 - - 5 3 - - SSE 984,9 10 0 0,4
21.01.2021 15:00:00 8,5 4,4 - - 5 3 - - SW 985,3 10 0 0,0
21.01.2021 14:00:00 8,9 4,1 - - 13 7 - - WSW 986,1 10 6 0,0
21.01.2021 13:00:00 8,7 3,1 - - 21 11 - - WSW 987,2 10 0 0,0
21.01.2021 12:00:00 8,5 3,1 - - 18 10 - - WSW 988,0 10 0 0,0
21.01.2021 11:00:00 8,6 4,0 - - 24 13 46 25 WSW 988,1 10 6 0,0
21.01.2021 10:00:00 7,3 2,9 - - 24 13 46 25 WSW 988,4 10 18 0,0
21.01.2021 09:00:00 6,5 2,0 7,5 7,2 31 17 54 29 WSW 988,3 10 0 0,0
21.01.2021 08:00:00 6,7 2,7 - - 26 14 - - WSW 988,0 10 0 0,0
21.01.2021 07:00:00 6,4 2,5 - - 28 15 46 25 WSW 987,5 10 0 0,0
21.01.2021 06:00:00 6,3 2,6 - - 24 13 46 25 WSW 987,6 10 0 0,0
21.01.2021 05:00:00 5,6 2,6 - - 18 10 - - WSW 987,2 30 0 0,0
21.01.2021 04:00:00 4,8 1,9 - - 16 9 - - WSW 986,6 30 0 0,0
21.01.2021 03:00:00 4,9 2,2 - - 21 11 - - W 985,9 30 0 0,0
21.01.2021 02:00:00 4,7 1,9 - - 22 12 - - W 984,7 35 0 0,0
21.01.2021 01:00:00 4,4 1,9 - - 22 12 52 28 W 983,1 40 0 0,0
21.01.2021 00:00:00 5,1 2,6 - - 34 18 55 30 W 981,4 45 - 0,0
20.01.2021 23:00:00 5,3 3,9 - - 21 11 67 36 W 978,6 50 0 1,0
20.01.2021 22:00:00 9,2 8,5 - - 37 20 63 34 SW 976,6 0,5 0 2,8
20.01.2021 21:00:00 9,5 8,5 - - 41 22 67 36 S 976,6 2,6 0 0,0
20.01.2021 20:00:00 10,1 8,4 - - 41 22 68 37 S 978,4 12 0 0,2
20.01.2021 19:00:00 10,0 8,4 - - 37 20 55 30 S 980,2 7 0 0,0
20.01.2021 18:00:00 10,4 8,5 - - 37 20 55 30 S 981,7 7 0 0,0
20.01.2021 17:00:00 10,2 8,9 - - 34 18 52 28 SSW 982,9 9 0 0,0
20.01.2021 16:00:00 10,1 8,9 - - 34 18 59 32 SSW 983,6 7 0 0,4
20.01.2021 15:00:00 10,2 8,8 - - 35 19 61 33 SSW 984,7 13 0 0,2
20.01.2021 14:00:00 9,9 8,9 - - 39 21 59 32 SSW 985,6 8 0 1,0
20.01.2021 13:00:00 10,2 8,8 - - 37 20 65 35 SSW 986,5 11 0 0,2
20.01.2021 12:00:00 10,3 8,8 - - 39 21 61 33 SSW 987,9 16 0 0,2
20.01.2021 11:00:00 9,8 8,9 - - 37 20 55 30 SSW 989,2 7 0 1,0
20.01.2021 10:00:00 9,8 9,1 - - 35 19 63 34 SSW 990,0 3,3 0 0,4
20.01.2021 09:00:00 9,9 8,8 7,4 7,0 31 17 54 29 SSW 990,5 9 0 0,0
20.01.2021 08:00:00 9,9 9,1 - - 34 18 57 31 SSW 990,9 11 0 0,2
20.01.2021 07:00:00 9,8 8,9 - - 31 17 52 28 SSW 991,5 3,7 0 0,8
20.01.2021 06:00:00 10,1 9,5 - - 31 17 61 33 SSW 992,4 5 0 0,6
20.01.2021 05:00:00 10,3 9,8 - - 34 18 54 29 SW 992,9 7 0 0,2
20.01.2021 04:00:00 10,2 9,7 - - 31 17 59 32 SW 993,5 2,4 0 1,0
20.01.2021 03:00:00 10,4 9,9 - - 34 18 57 31 SSW 993,9 4,2 0 0,6
20.01.2021 02:00:00 10,1 9,6 - - 39 21 57 31 SSW 995,0 1,9 0 0,6
20.01.2021 01:00:00 10,2 9,7 - - 29 16 57 31 SSW 995,6 6 0 1,6
20.01.2021 00:00:00 10,2 9,7 - - 31 17 54 29 SSW 996,4 1,6 - 0,8
19.01.2021 23:00:00 10,4 9,9 - - 31 17 59 32 SW 997,4 3,1 0 0,2
19.01.2021 22:00:00 10,2 9,6 - - 34 18 59 32 SSW 998,0 3,5 0 0,2
19.01.2021 21:00:00 10,1 9,5 - - 35 19 61 33 SSW 998,6 2,8 0 0,2
19.01.2021 20:00:00 10,0 9,2 - - 31 17 54 29 SSW 999,5 3,0 0 0,6
19.01.2021 19:00:00 9,8 9,1 - - 31 17 52 28 SSW 1000,5 5 0 0,8
19.01.2021 18:00:00 9,8 9,0 - - 28 15 48 26 SSW 1001,4 4,0 0 0,8
19.01.2021 17:00:00 10,1 8,7 - - 29 16 52 28 SSW 1002,5 4,1 0 0,2
19.01.2021 16:00:00 10,4 8,6 - - 26 14 52 28 SW 1003,3 10 0 0,0
19.01.2021 15:00:00 10,5 8,2 - - 29 16 50 27 SW 1003,9 22 0 0,0
19.01.2021 14:00:00 10,4 8,3 - - 28 15 48 26 SW 1005,1 10 0 0,0
19.01.2021 13:00:00 10,5 8,6 - - 28 15 50 27 SW 1006,0 10 0 0,0
19.01.2021 12:00:00 10,2 8,5 - - 22 12 - - SW 1007,3 10 0 0,0
19.01.2021 11:00:00 10,0 8,6 - - 21 11 - - W 1008,2 10 0 0,0
19.01.2021 10:00:00 10,1 8,3 - - 28 15 52 28 W 1008,5 10 0 0,2
19.01.2021 09:00:00 10,2 9,5 6,4 7,0 31 17 52 28 WSW 1008,7 1,6 0 0,0
19.01.2021 08:00:00 10,9 9,5 - - 29 16 54 29 WSW 1008,6 10 0 0,0
19.01.2021 07:00:00 10,8 9,7 - - 26 14 - - W 1008,7 13 0 0,0
19.01.2021 06:00:00 10,8 9,8 - - 26 14 - - WSW 1008,8 29 0 0,0
19.01.2021 05:00:00 10,6 9,9 - - 28 15 - - WSW 1008,8 23 0 0,2
19.01.2021 04:00:00 10,6 10,1 - - 24 13 - - WSW 1009,1 6 0 0,6
19.01.2021 03:00:00 10,8 10,3 - - 26 14 46 25 WSW 1009,2 1,7 0 0,6
19.01.2021 02:00:00 10,9 10,3 - - 26 14 50 27 WSW 1009,9 10 0 0,8
19.01.2021 01:00:00 10,3 9,7 - - 28 15 52 28 SW 1010,6 4,7 0 1,8
19.01.2021 00:00:00 10,2 9,7 - - 31 17 50 27 SW 1012,2 1,8 - 0,6
18.01.2021 23:00:00 10,1 9,6 - - 29 16 48 26 SW 1013,2 2,4 0 0,6
18.01.2021 22:00:00 9,7 9,3 - - 21 11 - - SW 1014,4 4,0 0 0,6
18.01.2021 21:00:00 9,2 8,8 - - 21 11 - - SSW 1015,4 1,7 0 0,2
18.01.2021 20:00:00 8,5 7,9 - - 26 14 - - SSW 1016,4 3,9 0 0,6
18.01.2021 19:00:00 8,4 7,7 - - 22 12 - - SSW 1017,6 11 0 0,0
18.01.2021 18:00:00 8,3 7,7 - - 18 10 - - SSW 1018,5 6 0 0,2
18.01.2021 17:00:00 8,6 7,1 - - 16 9 - - SW 1019,4 10 0 0,0
18.01.2021 16:00:00 8,8 6,0 - - 15 8 - - SSW 1019,9 21 0 0,0
18.01.2021 15:00:00 8,6 5,4 - - 9 5 - - SW 1020,7 10 0 0,0
18.01.2021 14:00:00 8,7 5,0 - - 11 6 - - SW 1021,6 10 0 0,0
18.01.2021 13:00:00 8,1 5,1 - - 9 5 - - SSW 1022,5 30 0 0,0
18.01.2021 12:00:00 7,5 5,1 - - 9 5 - - SW 1023,7 10 0 0,0
18.01.2021 11:00:00 6,4 4,7 - - 9 5 - - WSW 1024,4 30 6 0,0
18.01.2021 10:00:00 4,7 4,6 - - 5 3 - - SW 1024,4 10 6 0,0
18.01.2021 09:00:00 0,2 0,0 5,9 7,0 2 1 - - - 1025,0 10 0 0,0
18.01.2021 08:00:00 -0,6 -0,9 - - 2 1 - - SSW 1024,9 17 0 0,0
18.01.2021 07:00:00 -0,2 -0,4 - - 2 1 - - ESE 1025,1 10 0 0,0
18.01.2021 06:00:00 0,1 -0,2 - - 4 2 - - E 1024,9 14 0 0,0

tt = Température de l'air
td = dewpoint
tt -20cm = Température de l'air -20cm
tt -100cm = Température de l'air -100cm
ff = Vitesse du vent
fx = gusts
dd = Direction du vent
ppp = reduced air pressure
vv = visibility
sd = Ensoleillement
rr = Quantités de précipitations

stations d'obs. à proximité